Simultaneous Nadir Overpasses (SNOs) Predictions

Prediction of SNOs between GOES-16 and METOP-B Satellite Orbit:

Table of predicted SNOs for the next 14.0 days since TLE Epoch: 5/21/2022
Index Date Time (GOES-16) GOES-16 Lat,Lon METOP-B Lat,Lon Distance(km) Time Diff (sec)
1 05/22/2022 14:31:14 0.05, -75.21 0.15, -75.59 43.34 80
2 05/25/2022 02:29:37 -0.04, -75.21 -0.05, -75.20 0.89 80
3 05/27/2022 14:30:31 0.04, -75.25 -0.08, -74.78 54.69 80
4 05/29/2022 02:49:32 -0.04, -75.25 -0.94, -79.38 469.89 80
5 05/30/2022 02:26:13 -0.03, -75.26 0.14, -74.38 100.40 80
6 05/31/2022 14:45:05 0.03, -75.31 0.85, -78.95 415.01 80
7 06/01/2022 14:27:07 0.02, -75.32 -0.29, -73.96 155.54 80
8 06/03/2022 02:46:08 -0.02, -75.33 -0.72, -78.56 368.24 80
